GFSNW_925_temp_303.txt.gz
Temp
11 11 12 10 11 11 12 10 9 10 10 9 5 10 13 15 16 15 17 16 15 15 14 14 14 14 15 13 13 14 11 11 12 13 11 12 12 13 13 14 13 12 13 17
10 10 12 10 9 11 13 8 8 10 10 8 8 11 13 15 16 16 16 17 16 15 14 15 13 13 12 12 13 13 12 12 11 13 12 11 11 9 5 7 11 13 15 18
10 10 11 10 9 12 14 7 6 7 7 7 11 12 13 15 16 16 16 15 14 14 14 12 12 12 12 12 12 11 12 10 12 16 13 9 8 6 4 8 12 13 14 15
9 9 11 9 10 13 15 7 6 8 8 7 10 13 13 14 15 16 16 16 15 14 13 13 11 11 11 12 11 10 12 11 8 8 10 11 11 9 7 7 11 15 15 14
9 9 10 9 11 13 12 5 7 7 10 10 11 12 12 15 15 15 16 16 14 14 13 14 12 11 11 13 11 11 9 10 11 9 10 10 12 11 10 10 11 11 11 12
9 8 10 7 11 11 10 8 8 10 9 10 10 10 11 13 15 14 14 15 14 14 14 11 10 10 10 11 11 10 10 9 10 11 10 11 12 12 11 10 10 12 12 14
8 8 9 8 10 13 14 11 10 8 8 10 11 11 13 13 13 14 13 13 13 11 11 11 11 11 10 10 9 10 9 9 8 9 10 13 15 12 12 12 11 11 11 10
8 8 8 8 12 13 14 12 11 7 7 10 11 12 13 12 11 12 12 10 10 11 11 10 10 9 10 9 9 9 9 8 7 10 11 13 12 11 12 12 14 11 11 9
8 8 8 7 8 12 13 13 14 8 8 9 11 11 11 10 9 10 9 9 9 8 7 8 10 11 10 9 10 9 9 9 10 7 11 13 13 12 12 12 14 10 10 9
8 8 6 7 9 11 12 11 13 11 6 7 11 10 10 10 9 8 8 9 10 8 7 8 10 11 10 10 9 8 10 8 9 6 10 12 11 11 12 13 13 9 10 9
8 6 5 6 8 10 11 9 12 11 5 6 7 9 9 8 9 9 8 9 8 6 8 9 8 9 9 10 11 10 10 9 8 6 9 11 10 11 12 11 8 9 9 8
6 4 5 6 8 9 9 8 10 10 6 6 7 7 7 8 10 7 6 10 9 8 7 7 7 8 7 10 11 9 11 10 10 10 11 8 8 8 7 8 9 8 8 7
5 4 5 6 8 8 8 8 8 7 5 6 6 7 8 8 8 9 7 6 8 8 7 6 7 10 8 9 10 9 9 9 9 9 8 7 7 6 7 8 8 7 7 6
5 5 5 7 8 8 8 9 9 11 6 6 6 7 7 7 10 10 10 9 7 6 7 6 7 9 7 9 9 10 10 9 9 7 6 7 7 7 7 7 6 6 5 5
5 5 5 7 7 7 9 11 12 13 9 6 6 6 7 6 8 9 9 8 7 7 7 6 7 6 7 5 8 9 9 9 10 10 8 8 7 6 6 6 6 5 5 4
5 5 6 6 7 8 11 3 10 11 10 5 7 5 6 7 7 7 6 6 5 5 6 5 5 5 7 9 10 7 7 7 8 8 7 7 6 5 5 5 4 4 4 4
5 5 6 7 8 9 7 6 10 10 10 5 6 6 6 6 6 4 5 5 3 5 4 5 6 6 6 7 10 6 6 6 5 5 6 5 5 4 4 3 3 2 2 2
5 5 6 6 9 9 7 7 10 10 8 5 5 5 6 5 5 5 3 4 4 3 4 5 6 6 5 8 6 5 5 5 5 4 5 4 3 2 2 2 2 2 1 1
5 5 6 7 8 6 7 8 9 10 8 5 5 7 7 4 3 4 4 3 5 2 5 5 6 5 7 7 5 5 6 6 3 4 3 3 2 2 2 1 1 1 1 0
5 5 5 3 5 8 8 8 4 3 2 3 4 4 5 5 4 4 5 3 5 6 5 4 6 6 4 5 6 6 4 4 4 3 2 2 2 1 1 0 0 -0 -0 -1
5 3 3 4 6 7 4 4 6 5 5 4 3 4 5 4 6 4 4 4 4 7 6 6 5 6 4 4 4 3 3 3 2 2 2 2 1 1 0 -0 -1 -1 -1 -1
5 6 5 5 5 3 5 3 5 6 6 3 5 4 4 4 5 5 4 5 5 7 4 5 5 4 3 3 2 2 2 1 1 1 0 -0 -0 -0 -1 -1 -1 -2 -2 -2
9 6 3 5 2 2 6 3 5 4 4 3 4 4 4 4 4 4 5 5 5 4 5 6 5 2 2 2 1 1 1 0 -0 -0 -1 -1 -1 -1 -1 -1 -2 -2 -2 -3
4 4 4 5 3 4 5 6 5 4 4 5 4 2 5 3 5 4 5 4 4 5 4 5 2 1 1 1 1 0 0 -0 -0 -1 -1 -1 -1 -2 -2 -2 -2 -3 -3 -3
3 5 3 3 3 2 3 3 4 4 5 4 3 3 4 3 4 4 4 3 4 5 6 3 1 1 1 1 0 -0 -1 -2 -1 -1 -1 -1 -1 -2 -2 -2 -2 -3 -3 -4
3 2 3 2 3 2 3 3 3 3 3 3 4 5 5 4 5 4 5 5 5 5 1 1 1 0 0 0 -0 -1 -1 -1 -1 -1 -1 -1 -2 -2 -2 -3 -3 -3 -4 -4
3 2 1 2 2 2 2 4 3 1 4 3 4 4 5 3 4 5 4 4 1 0 0 1 1 0 0 -0 -1 -1 -1 -1 -1 -1 -1 -2 -2 -3 -3 -3 -3 -4 -4 -4

GFSNW_925_temp_309.txt.gz
Temp
6 7 8 9 10 10 9 13 14 13 14 18 18 17 21 20 21 20 20 21 20 21 22 22 23 24 23 22 21 21 22 21 18 19 19 19 21 22 22 17 17 21 23 24
6 7 7 8 9 9 10 10 14 13 15 13 16 20 21 21 21 21 20 19 20 20 20 20 23 23 18 20 21 22 20 20 18 19 18 17 18 19 10 11 20 21 21 23
6 7 7 8 9 9 11 10 8 15 16 20 19 20 20 20 22 22 21 19 19 19 19 21 21 21 17 18 20 13 19 21 20 21 19 16 11 15 9 11 18 20 22 24
6 6 7 8 8 8 10 10 8 15 11 15 19 21 21 21 20 21 21 19 20 19 18 19 19 20 17 17 14 18 20 15 15 16 19 19 20 17 15 11 18 20 24 25
5 6 7 7 8 7 9 7 13 17 17 18 19 18 20 21 21 21 21 21 20 20 17 18 19 20 19 20 18 19 19 18 18 16 18 18 19 20 19 17 19 21 21 22
5 6 7 7 7 7 8 10 13 17 17 18 19 19 20 21 22 21 22 21 19 19 20 19 20 21 21 21 19 18 18 17 17 18 17 17 16 18 20 20 20 20 20 22
5 6 6 7 7 9 10 11 16 15 15 18 19 20 20 21 22 21 20 21 20 17 18 19 19 19 18 19 19 20 18 17 16 15 16 15 21 19 20 21 21 21 20 21
6 6 6 6 7 9 9 12 14 16 15 19 19 20 20 21 21 21 20 19 19 18 19 17 14 15 15 15 17 17 19 17 13 14 17 20 21 18 18 19 20 21 20 20
6 6 6 6 7 8 8 10 12 16 17 18 20 20 20 19 19 18 16 15 16 18 18 13 14 15 17 14 16 16 16 17 17 15 15 17 19 18 18 19 18 19 20 18
6 6 6 6 6 7 7 10 12 15 15 19 20 20 19 20 19 16 15 15 14 15 12 13 17 18 19 16 15 12 15 15 12 14 16 19 19 17 18 17 17 17 18 17
6 6 7 6 5 6 6 9 12 12 13 16 16 19 18 18 19 16 16 14 14 13 12 16 16 18 17 18 18 15 14 14 13 15 13 14 17 17 17 16 16 16 17 16
6 7 6 6 5 6 6 9 11 13 11 12 11 11 11 18 20 18 15 16 15 15 15 16 16 15 15 18 16 17 16 18 17 16 17 16 17 16 15 16 16 16 16 15
6 6 6 6 5 6 6 9 10 11 9 12 13 12 12 13 12 13 13 16 18 17 17 17 18 17 18 17 18 17 17 16 15 15 16 16 15 14 15 16 15 15 15 13
5 6 6 6 6 7 6 10 10 12 11 10 10 10 12 10 11 12 13 16 14 16 18 15 16 16 17 17 17 17 16 15 16 16 15 14 14 15 14 14 13 13 12 12
5 7 6 6 6 6 6 9 9 11 9 9 10 11 11 11 11 13 13 14 16 16 14 14 15 14 13 14 15 16 15 16 16 17 17 16 14 14 13 12 12 11 11 11
6 7 6 5 5 6 8 4 9 11 11 9 10 11 11 12 12 14 14 14 14 14 13 13 13 11 14 14 16 15 16 15 15 15 15 15 13 12 12 11 11 10 9 8
6 5 5 5 6 7 7 7 8 10 12 10 11 12 12 12 12 12 12 12 11 13 12 12 13 13 13 14 16 14 15 14 14 14 13 11 12 11 10 9 8 8 7 7
6 5 5 6 6 6 7 7 9 11 10 14 13 10 11 11 13 11 12 11 11 11 11 12 14 12 14 14 14 14 14 13 12 12 12 11 10 9 8 8 8 8 7 6
5 6 6 6 7 5 5 6 8 9 11 11 12 12 10 12 12 12 11 12 10 10 10 12 13 14 13 14 12 13 12 12 11 11 10 9 9 9 8 8 7 7 6 5
5 6 6 3 4 6 6 7 7 8 10 12 13 15 11 13 13 11 10 11 11 10 12 12 11 14 11 13 13 13 11 11 10 9 8 9 8 8 7 7 6 5 5 4
6 4 3 4 6 6 5 4 6 9 11 13 13 14 11 13 13 11 13 12 13 12 12 12 12 12 10 12 11 11 10 10 10 9 8 8 7 6 5 5 4 4 4 3
5 5 4 4 5 5 6 7 10 12 13 12 12 13 13 12 14 12 12 12 11 13 10 10 11 8 10 11 10 10 9 9 8 8 7 6 6 5 5 4 4 3 2 1
7 6 5 6 6 7 8 8 12 13 12 13 11 10 11 11 12 10 10 9 11 10 8 10 10 9 10 9 9 8 8 7 6 6 5 5 4 4 4 3 2 2 2 1
7 6 6 9 8 10 13 13 14 12 12 12 13 11 11 11 10 10 9 10 9 9 9 10 8 8 8 8 7 7 6 5 5 4 4 4 3 2 1 0 -1 -1 -0 -1
7 10 8 10 12 13 14 14 12 12 14 13 11 11 11 9 8 10 9 7 9 10 10 8 8 8 7 6 6 5 4 3 4 4 1 1 1 -0 -1 -2 -0 -1 -3 -3
6 7 7 9 9 9 11 12 12 14 13 14 14 12 11 10 11 9 8 10 10 9 7 6 6 6 5 5 5 4 4 4 3 0 -0 -1 -2 -2 -3 -3 -3 -3 -3 -4
5 4 9 9 9 9 11 12 12 13 13 12 12 9 11 11 11 10 10 9 6 5 5 6 6 5 5 4 4 4 3 3 2 1 1 -2 -2 -2 -3 -2 -2 -4 -3 -3

GFSNW_925_temp_312.txt.gz
Temp
6 6 6 7 8 9 8 8 11 14 14 17 18 17 21 21 22 23 21 21 21 21 22 22 23 23 24 24 22 21 22 21 18 20 20 20 20 21 21 16 17 19 21 23
5 6 6 7 7 8 7 8 11 14 15 13 17 20 21 23 22 22 21 21 21 21 20 20 21 23 19 22 21 22 21 20 18 20 19 19 18 19 10 12 18 19 19 22
5 6 6 7 6 8 10 9 10 11 15 18 19 20 20 21 23 23 23 22 21 20 20 21 20 21 18 20 21 15 19 21 19 18 18 16 12 15 9 12 16 19 20 23
5 5 6 6 6 8 9 9 8 12 9 14 19 20 21 21 21 23 23 20 20 20 19 19 19 20 18 18 16 19 20 16 16 17 19 19 19 17 15 11 17 18 22 24
4 5 6 6 6 7 8 7 10 13 15 16 19 19 21 21 22 22 21 21 21 21 19 19 18 20 19 19 18 18 19 17 19 17 20 20 19 21 19 17 17 18 20 20
4 5 5 6 6 7 8 8 11 14 16 16 19 19 21 22 23 23 23 22 22 20 21 21 21 21 21 21 19 18 19 17 16 17 19 19 15 18 19 20 19 18 17 20
4 5 5 6 6 7 9 11 13 11 11 16 19 20 21 22 23 22 23 23 22 20 20 20 20 20 20 20 21 20 19 18 16 15 16 15 20 21 21 20 21 21 21 21
4 5 5 6 6 7 8 11 11 12 11 17 19 20 21 22 23 22 22 21 21 20 20 17 14 14 15 15 19 19 20 17 13 13 16 19 20 20 19 19 20 22 21 21
4 5 5 6 6 6 7 9 10 12 16 17 20 21 21 21 21 21 17 17 19 19 18 12 11 14 15 14 16 17 18 18 15 15 15 16 19 19 19 20 17 19 20 20
4 5 5 6 6 6 7 8 9 11 15 17 17 18 20 22 21 20 17 17 17 19 12 11 16 17 20 15 14 12 14 14 12 14 15 18 19 19 19 17 16 17 19 17
4 5 5 6 6 6 6 8 9 10 12 13 14 18 21 21 21 16 16 14 15 13 11 16 17 17 18 18 18 16 15 14 13 14 12 14 19 18 17 16 17 17 17 16
4 5 5 6 6 6 7 7 8 10 9 10 12 13 14 17 21 18 16 15 16 14 13 17 18 16 17 18 17 19 16 17 16 16 16 17 18 16 16 17 16 17 16 14
4 5 5 6 6 6 7 8 8 9 8 9 10 14 14 14 16 18 14 16 17 17 19 18 17 17 17 16 17 18 19 18 16 16 17 17 16 15 16 16 16 16 15 14
5 5 6 6 6 6 6 7 8 9 8 8 11 12 14 13 15 16 16 18 17 19 19 16 16 17 18 17 19 19 18 17 16 16 17 15 15 15 16 15 14 14 13 13
4 5 6 6 6 6 6 7 8 10 9 8 10 13 12 13 14 15 15 16 17 17 15 14 16 16 15 16 17 17 17 16 16 16 17 16 15 15 14 13 13 13 12 12
4 5 6 6 5 6 6 4 8 9 9 7 8 12 13 13 14 15 16 16 17 15 15 15 15 14 15 14 15 18 17 17 17 16 16 15 14 14 13 12 11 11 10 9
5 5 6 6 5 6 6 7 8 9 10 8 9 11 14 14 14 15 14 14 14 15 14 14 14 14 13 15 16 16 15 15 15 14 13 12 13 12 11 11 10 9 8 8
5 5 7 5 6 6 7 8 9 10 11 10 9 9 12 14 12 12 14 12 13 13 14 14 14 12 14 13 15 15 15 14 13 13 13 12 11 10 10 9 9 8 7 7
5 6 6 5 6 5 5 7 8 9 9 8 9 11 10 13 13 12 13 14 12 12 11 13 14 13 12 15 14 15 14 13 13 13 11 10 10 10 9 9 9 7 7 6
5 5 5 4 5 6 7 7 5 5 6 8 12 15 11 13 13 12 11 13 12 11 13 13 12 14 13 14 14 14 13 13 12 10 9 9 9 9 9 8 7 6 6 5
6 3 2 4 6 7 4 3 5 6 7 11 14 14 13 14 13 13 14 13 13 12 13 12 12 12 11 14 14 13 12 11 11 10 10 10 9 8 7 6 5 5 4 3
5 4 5 5 5 3 5 6 7 9 11 14 13 14 14 15 15 13 14 14 13 13 12 11 12 8 12 12 11 11 11 11 10 9 9 8 7 6 5 5 5 4 2 2
6 6 5 6 5 6 8 8 10 12 13 15 13 11 12 14 13 11 11 8 11 11 9 10 10 10 12 11 11 11 10 9 8 8 7 6 6 5 4 4 3 3 2 1
7 6 6 8 7 10 12 13 13 14 14 14 12 12 12 12 12 11 10 12 11 9 9 10 9 10 10 10 9 9 8 7 6 5 5 5 4 3 1 1 0 0 -0 -2
6 9 9 10 12 12 14 14 14 14 14 12 12 12 12 10 9 12 10 9 9 10 10 9 9 9 8 7 7 6 5 4 4 3 1 2 1 -0 -1 -0 -0 -2 -3 -3
8 9 10 12 11 11 11 12 11 13 13 13 14 13 12 11 11 10 9 10 10 10 7 8 8 7 6 6 5 4 4 3 1 -0 -0 -1 -1 -2 -2 -2 -2 -3 -3 -3
6 6 8 9 10 9 10 11 12 13 13 12 13 9 12 12 12 12 13 10 6 6 6 7 7 6 5 5 4 4 3 2 1 0 -1 -2 -2 -2 -2 -2 -2 -2 -2 -2

GFSNW_925_temp_315.txt.gz
Temp
5 6 5 6 7 7 8 7 9 12 14 12 10 10 17 20 20 22 20 21 21 19 19 19 20 21 19 20 20 20 20 14 14 17 19 19 18 18 17 12 16 12 14 17
5 6 5 6 6 7 7 8 10 12 14 10 10 16 18 20 20 20 19 19 20 21 20 18 20 18 18 20 20 18 19 14 13 17 16 17 17 17 10 11 14 15 14 16
5 5 5 6 6 6 8 8 10 9 11 13 14 15 17 18 20 20 20 20 20 19 19 20 19 16 17 18 18 16 18 17 15 13 16 13 12 14 8 12 12 14 15 18
5 5 5 6 6 6 8 8 7 10 9 11 12 15 17 18 19 20 19 19 19 18 18 18 19 17 16 17 16 18 17 14 15 16 18 16 16 15 12 12 16 15 19 19
4 5 5 6 6 6 7 6 9 10 11 14 14 14 16 18 19 19 18 18 18 17 17 16 15 18 17 17 16 17 17 14 17 16 17 17 18 18 16 14 16 16 17 17
4 5 5 5 6 6 7 8 9 11 12 13 14 14 17 18 19 20 20 19 17 17 17 19 19 18 17 17 15 15 15 12 12 14 16 15 12 15 17 17 16 16 14 16
4 4 5 5 5 5 7 9 11 10 9 13 14 17 19 19 18 18 20 18 17 17 16 17 16 15 17 19 16 16 15 14 10 10 14 10 15 19 18 17 17 16 17 18
4 4 5 5 5 5 5 8 9 10 10 13 16 17 18 19 19 19 18 19 17 16 16 11 11 9 12 14 18 17 16 11 9 9 10 14 17 18 18 18 18 17 16 18
4 4 4 4 5 5 6 6 8 10 11 12 16 15 18 15 16 17 16 16 17 15 10 7 9 10 13 12 16 15 16 13 11 10 10 11 15 18 18 18 13 15 15 16
4 4 4 4 5 5 5 6 7 9 10 13 16 14 16 17 17 12 14 15 16 11 6 8 10 11 14 11 12 11 12 10 10 8 10 12 17 17 18 15 12 14 14 13
4 4 4 4 5 5 5 6 8 9 10 10 12 15 16 15 14 10 12 10 9 7 7 9 9 9 12 13 13 12 11 9 8 8 7 11 17 17 16 13 15 14 12 11
4 4 4 4 5 5 6 7 8 8 8 9 10 13 14 13 14 12 12 11 12 8 7 9 9 10 9 12 11 15 12 11 10 10 10 13 13 13 15 14 14 12 11 11
3 3 3 4 5 5 5 7 7 8 7 8 10 10 13 15 16 18 10 11 13 11 12 12 11 13 11 10 11 14 16 15 10 12 14 13 12 14 15 13 13 12 12 11
3 3 3 4 5 5 5 6 8 9 8 7 9 11 12 13 16 17 17 16 16 14 12 8 8 9 13 11 14 12 13 14 13 13 13 12 12 13 12 12 12 11 11 10
3 3 3 4 5 5 5 7 8 9 8 7 8 11 11 13 15 16 17 16 12 11 9 8 9 11 10 11 11 12 13 12 10 10 13 11 11 11 11 11 10 10 10 9
3 3 4 5 6 6 6 4 8 9 9 6 7 8 10 12 14 15 15 15 11 10 9 9 10 11 9 7 10 14 14 13 14 13 12 11 11 11 11 10 9 8 8 7
1 3 5 5 6 5 6 6 8 9 12 7 7 7 10 11 13 13 11 12 9 9 8 8 9 10 9 7 10 13 13 13 11 11 11 10 11 9 9 9 8 7 6 6
2 4 5 5 5 6 6 8 8 10 9 8 7 7 8 11 9 9 11 8 8 8 9 10 10 9 9 8 12 12 13 11 11 11 11 9 9 9 8 8 7 6 6 5
3 4 5 5 6 5 6 7 8 10 9 7 6 8 8 10 9 9 8 9 7 7 5 8 8 8 8 11 11 12 12 11 10 9 9 9 8 8 7 7 6 5 5 4
3 4 4 3 5 7 7 7 4 4 5 7 7 9 8 10 9 8 8 7 6 6 7 8 6 8 11 12 12 11 11 10 9 8 7 7 7 7 7 6 5 5 4 1
3 1 2 4 6 6 4 3 5 4 5 7 9 10 9 11 9 7 7 7 6 7 8 8 7 7 8 11 11 10 10 10 9 9 8 8 7 5 4 4 4 2 1 -0
3 4 5 5 4 2 5 5 5 7 7 8 10 10 10 11 11 7 9 10 8 10 8 6 7 6 9 9 9 9 9 9 9 8 6 5 5 4 4 3 2 2 1 -1
6 6 4 5 4 6 7 7 7 7 9 10 11 10 8 9 8 6 6 7 7 7 5 7 6 7 8 9 9 8 8 7 6 5 5 5 4 4 3 2 2 0 -1 -2
4 4 5 6 6 6 7 7 8 9 11 12 11 8 7 7 7 6 8 7 7 6 5 7 3 6 8 8 7 6 5 4 4 4 3 1 1 1 1 0 0 -0 -2 -3
5 6 7 7 7 8 8 10 12 12 12 11 9 8 7 5 7 6 6 7 7 7 6 4 3 6 5 4 4 3 2 2 2 1 0 -0 -0 -1 -1 -1 -1 -2 -2 -3
5 7 7 7 7 6 9 11 11 12 11 11 8 9 8 8 6 7 6 7 6 5 2 4 4 3 3 3 3 2 1 -0 -1 -1 -0 -1 -1 -2 -2 -2 -2 -3 -2 -2
6 5 4 6 8 9 10 11 11 12 11 8 7 7 9 7 7 8 6 6 5 5 4 4 4 3 3 3 1 1 0 -1 -1 -1 -1 -2 -2 -2 -2 -2 -2 -2 -2 -2